Simultaneous Nadir Overpasses (SNOs) Predictions

Prediction of SNOs between GOES-14 and NOAA-20 Satellite Orbit:

Table of predicted SNOs for the next 14.0 days since TLE Epoch: 11/12/2022
Index Date Time (GOES-14) GOES-14 Lat,Lon NOAA-20 Lat,Lon Distance(km) Time Diff (sec)
1 11/12/2022 08:17:30 0.07,-104.33 -0.10,-103.52 92.14 80
2 11/14/2022 20:20:40 -0.05,-104.10 -0.09,-104.28 21.12 80
3 11/15/2022 20:04:34 -0.06,-104.10 0.91, -99.75 496.54 80
4 11/17/2022 08:26:23 0.03,-104.34 0.19,-105.03 79.11 80
5 11/18/2022 08:04:57 0.05,-104.32 -0.82,-100.49 436.37 80
6 11/19/2022 20:26:51 -0.02,-104.07 -0.42,-105.78 195.96 80
7 11/20/2022 20:10:46 -0.03,-104.07 0.58,-101.25 321.89 80
8 11/22/2022 08:32:34 0.01,-104.34 0.51,-106.53 249.57 80
9 11/23/2022 08:11:09 0.03,-104.33 -0.50,-102.00 265.88 80
10 11/24/2022 20:33:03 -0.00,-104.03 -0.73,-107.28 370.84 80
11 11/25/2022 20:16:58 -0.02,-104.03 0.28,-102.75 146.36 80
